Lid_Strength_Index
3 3 3 3 4 5 6 9 13 10 10 13 14 15 12 11 12 12 12 13 14 15 15 16 16 14 14 12 13 16 16 19 21 19 15 13 15 17 17 22 21 20 23 21
3 3 3 3 4 5 10 14 14 10 10 17 17 15 13 13 13 13 13 13 14 14 16 18 16 14 12 12 14 16 16 20 24 20 17 15 16 15 15 16 18 22 23 19
3 3 3 3 4 4 8 12 14 13 13 15 16 16 16 15 12 13 13 14 13 15 16 15 16 15 12 12 13 11 14 18 21 23 20 17 18 16 15 17 24 20 19 17
3 3 3 3 3 4 8 12 15 13 17 16 16 16 15 15 15 14 14 15 14 16 18 17 17 15 15 13 11 13 15 19 18 17 16 16 16 16 16 17 17 19 17 16
4 4 4 4 4 4 11 12 14 14 15 15 16 15 17 15 15 15 15 16 14 15 17 16 17 16 17 17 15 16 16 20 18 19 16 16 17 16 16 16 15 15 15 16
5 4 4 4 4 6 11 11 10 12 14 15 16 16 15 14 14 14 13 14 15 16 14 14 15 15 15 16 17 17 17 19 20 24 17 17 20 16 16 15 14 15 17 14
4 4 4 4 4 5 10 10 10 13 16 15 14 13 13 14 14 14 13 13 15 13 12 13 14 15 15 15 15 14 17 18 19 23 20 26 16 13 13 14 13 13 13 12
5 4 4 4 4 4 9 9 10 12 16 14 14 13 14 14 14 14 13 13 13 13 14 17 18 17 17 15 14 14 15 17 21 24 24 19 16 14 14 15 15 12 13 11
5 5 4 4 4 4 8 9 9 11 13 15 12 13 14 15 16 15 13 12 12 13 15 16 23 21 19 19 17 13 14 15 18 20 26 27 17 12 11 12 18 12 11 11
4 4 4 4 4 3 7 9 8 10 13 12 13 14 14 13 14 16 14 14 14 14 17 19 21 20 16 20 19 19 18 19 19 19 23 19 13 11 11 20 18 11 11 10
5 4 4 4 3 3 6 8 7 9 12 11 11 10 13 13 14 16 15 15 15 16 19 20 19 20 17 19 17 18 19 21 21 20 23 21 11 12 16 13 11 10 10 10
4 5 5 5 5 4 4 9 7 7 11 11 8 8 9 10 11 13 14 15 15 15 17 17 19 19 19 18 21 15 18 16 19 18 18 13 12 11 10 10 10 10 10 9
3 4 5 5 5 5 5 9 9 10 12 12 12 12 10 9 10 10 14 14 12 13 13 15 16 19 17 20 19 17 15 13 16 17 14 13 11 10 10 9 10 9 9 8
1 2 3 3 3 4 4 8 8 10 12 14 13 9 10 9 10 10 10 11 11 11 12 15 17 18 15 18 16 17 15 15 16 16 13 12 11 11 10 9 9 9 9 8
-0 0 1 3 3 3 5 5 6 6 11 14 13 10 10 10 10 11 10 11 12 13 14 16 16 14 16 16 15 16 13 15 18 16 13 13 13 10 9 10 10 11 10 10
-1 -0 0 1 3 3 5 8 6 5 6 10 16 11 12 10 10 11 11 10 11 12 14 14 13 12 15 22 19 14 13 12 11 13 11 11 10 9 10 11 11 10 9 9
-1 -0 0 1 1 3 6 8 7 5 6 10 13 14 11 10 10 11 11 11 11 11 12 14 13 13 12 14 16 14 12 11 11 10 11 13 11 12 11 11 10 9 9 8
-0 -0 0 1 1 3 5 4 3 4 8 9 16 15 12 10 12 13 11 12 11 11 12 12 13 13 13 17 13 12 11 11 11 10 11 12 12 12 11 10 11 10 9 9
-0 -0 1 2 5 7 6 2 2 3 6 12 13 16 18 11 12 11 11 11 14 11 14 13 13 14 16 13 12 12 11 12 11 11 12 12 12 12 12 12 11 10 10 9
0 2 5 8 6 2 2 5 7 7 8 8 12 12 16 12 13 15 13 12 14 15 13 13 14 15 12 11 10 10 11 10 11 14 14 14 14 13 12 12 10 10 9 10
3 6 7 4 1 5 6 9 10 10 12 10 10 10 14 11 13 13 11 13 14 18 16 16 18 18 13 11 11 10 11 11 12 12 12 12 13 12 11 11 10 9 9 10
4 4 4 4 6 8 10 12 11 12 13 11 11 12 10 11 9 11 11 14 13 17 14 18 19 15 12 12 11 11 11 11 11 11 12 12 11 11 10 11 10 9 9 9
4 6 9 9 10 12 13 16 14 14 12 11 11 12 11 10 10 11 12 14 15 13 19 17 16 13 11 11 11 11 12 11 11 12 11 11 11 9 10 10 9 9 9 9
8 10 12 11 13 12 14 14 12 11 11 10 10 11 12 11 12 11 14 14 15 19 21 19 14 13 11 11 11 12 12 12 12 12 11 11 10 10 10 10 9 9 10 9
8 10 13 11 10 10 10 9 10 9 8 9 11 12 12 12 13 13 13 15 20 19 18 13 13 12 11 12 12 13 12 12 12 12 11 11 10 10 10 10 9 9 9 10
8 9 11 9 11 10 9 10 10 9 8 10 11 12 13 14 13 14 16 18 19 16 12 12 11 12 11 12 12 12 12 12 11 11 11 10 10 10 10 9 9 9 9 10
10 10 9 8 9 9 8 7 8 6 8 12 11 14 14 12 14 16 16 17 14 11 11 11 11 10 11 11 12 11 11 11 11 11 11 9 9 9 10 10 9 8 8 10